{"data":{"norad_id":67066,"epoch":"2026-09-20T15:37:40.946304Z","epoch_age_seconds":95827,"freshness":"FRESH","line1":"1 67066U 25295H   26263.65116836 -.00000109  00000+0  33472-4 0  9996","line2":"2 67066  50.0002  42.7701 0000673  77.7758 282.3190 13.29326547 38202","mean_motion":13.29326547,"eccentricity":6.73e-5,"inclination_deg":50.0002,"raan_deg":42.7701,"arg_perigee_deg":77.7758,"mean_anomaly_deg":282.319,"bstar":3.3472e-5,"rev_number":3820,"period_min":108.32552793366,"perigee_km":1148.797910079,"apogee_km":1149.8111037058,"semimajor_km":7527.4415068924,"source":"CELESTRAK","updated_at":"2026-09-21T09:00:16.410557Z"}}